Starlink 3931

operational
NORAD ID: 52548 Int'l Des: 2022-051 Owner: SPXS Country: US Constellation: starlink
LEOCIRCULAR

About Starlink 3931

Description loading...

Live Position

Loading 3D Globe...

Upcoming Passes

Altitude History

Altitude vs Time

uPlot chart will show altitude changes over time

Two-Line Element Set

1 52548U 22051R 25347.61271290 .00000191 00000-0 30087-4 0 9996
2 52548 53.2162 155.5357 0001274 84.5269 275.5869 15.08840067198452
Epoch: Dec 13, 2025 • Age: 16 hours

Current Status

Altitude 554.0 km
Velocity 7.58 km/s
Sub-Earth Point -40.89°S, 66.08°W
Launch Date May 13, 2022
Age 3.5 years
Type internet

Technical Details

Classification Payload
Mass 297.00 kg
Dry Mass 275.00 kg
Total Mass 297.00 kg
Length 0.20 m
Diameter 2.80 m
Span 9.00 m
Shape Box + pan
Manufacturer SPXS
Bus Type Starlink
Phase Status In Orbit
Owner/State SPXS/US

Large Constellations

Loading constellations...